Location: Wells
(51.2093°N, 2.6446°W)
Time: 07:25:37
(UTC+01:00)

PCSat - Pass Details

Date: 15 March 2026
Orbit: 780 x 790 km, 67.1° (Epoch: 13 April)

Event Time Altitude Azimuth Distance (km) Brightness Sun altitude
Exits shadow 23:59:17 15° 26° (NNE) 2,007 12.1 -40.4°
Drops below altitude 10° 00:00:18 10° 31° (NNE) 2,364 12.5 -40.4°
Sets 00:02:50 0° 37° (NE) 3,297 13.3 -40.5°
